Regional Weather Roundup
Issued by NWS Sioux Falls, SD

Home | Current Version | Previous Version | Graphics & Text | Print | Product List | Glossary On
Versions: 1 2 3 4 5 6 7 8 9 10 11 12 13 14 15 16 17 18 19 20 21 22 23 24 25 26 27 28 29 30 31 32 33 34 35 36 37 38 39 40 41 42 43 44 45 46 47 48 49 50
000
ASUS43 KFSD 011402
RWRFSD

WEATHER ROUNDUP FOR SE SOUTH DAKOTA/SW MINNESOTA/NW IOWA
NATIONAL WEATHER SERVICE SIOUX FALLS SD
900 AM CDT SAT AUG 01 2015

NOTE: "FAIR" INDICATES FEW OR NO CLOUDS BELOW 12,000 FEET WITH NO
SIGNIFICANT WEATHER AND OR OBSTRUCTIONS TO VISIBILITY.


SDZ038>040-050-052>070-011500-
SOUTHEAST SOUTH DAKOTA

CITY           SKY/WX    TMP DP  RH WIND       PRES   REMARKS
BROOKINGS      SUNNY     68  63  83 SE3       30.03S
CHAMBERLAIN    NOT AVBL
HURON          MOSUNNY   71  67  87 SE8       29.96F
MADISON        FAIR      75  70  83 SW6       30.02S
MITCHELL       CLOUDY    69  67  93 SE9       29.99S
SIOUX FALLS    PTSUNNY   75  68  78 SW7       30.02S
WINNER         LGT RAIN  71  57  61 SW24G31   30.03R
YANKTON        PTSUNNY   73  66  78 SW7       30.01S
$$

MNZ071-072-080-081-089-090-097-098-011500-
SOUTHWEST MINNESOTA

CITY           SKY/WX    TMP DP  RH WIND       PRES   REMARKS
FAIRMONT       SUNNY     72  61  68 SW10      30.01F
JACKSON        SUNNY     72  64  78 SW9       30.03F
LUVERNE        MOSUNNY   68  64  88 CALM      30.04S
MARSHALL       SUNNY     73  63  68 SW5       30.01S
MONTEVIDEO     SUNNY     75  63  64 CALM      30.00F
PIPESTONE      MOSUNNY   70  66  88 SW3       30.03S
REDWOOD FALLS  SUNNY     70  61  73 CALM      29.99S
TRACY          SUNNY     73  68  83 SW5       30.01S
WINDOM         SUNNY     72  66  83 SW7       30.02F
WORTHINGTON    SUNNY     72  64  78 SW10      30.03F
$$

IAZ001>003-012>014-020>022-031-032-NEZ013-014-SDZ071-011500-
NORTHWEST IOWA

CITY           SKY/WX    TMP DP  RH WIND       PRES   REMARKS
DENISON        CLOUDY    68  66  94 CALM      30.04S
ESTHERVILLE    SUNNY     72  65  78 W7        30.03S
SIOUX CITY     CLOUDY    69  64  84 CALM      30.03F
SPENCER        SUNNY     73  66  78 SW9       30.04S
$$

ABBREVIATIONS USED IN REMARKS
   TC - TEMPERATURE IN CELSIUS
  WCI - WIND CHILL INDEX
   HX - HEAT INDEX
  VSB - VISIBILITY




USA.gov is the U.S. government's official web portal to all federal, state and local government web resources and services.